This is the latest recevied weather packets stored in our database for station/object DH1NAI-6. If no packets are shown the sender has not sent any weather packets the latest 10 day(s).
| Time | Temp. | Humidity | Pressure | Rain* | Wind** | Luminosity | Snow |
|---|---|---|---|---|---|---|---|
| 1787945539 | 17.78° C | 99% | 1012 hPa | 0 mm | - | 0 W/m² | - |
| 1787944932 | 17.78° C | 99% | 1011.8 hPa | 0 mm | - | 0 W/m² | - |
| 1787944323 | 17.78° C | 99% | 1011.4 hPa | 0 mm | - | 0 W/m² | - |
| 1787943716 | 17.78° C | 99% | 1011.5 hPa | 0 mm | - | 0 W/m² | - |
| 1787943108 | 17.78° C | 99% | 1011.2 hPa | 0 mm | - | 0 W/m² | - |
| 1787942499 | 17.78° C | 99% | 1011.4 hPa | 0 mm | - | 0 W/m² | - |
| 1787941891 | 17.78° C | 99% | 1011.7 hPa | 0 mm | - | 0 W/m² | - |
| 1787941284 | 17.78° C | 99% | 1011.3 hPa | 0 mm | - | 0 W/m² | - |
| 1787940676 | 17.78° C | 99% | 1011.1 hPa | 0 mm | - | 0 W/m² | - |
| 1787940052 | 17.78° C | 99% | 1011.1 hPa | 0 mm | - | 0 W/m² | - |
| 1787939444 | 17.78° C | 99% | 1011.1 hPa | 0 mm | - | 1 W/m² | - |
| 1787938831 | 17.78° C | 99% | 1011.2 hPa | 0 mm | - | 3 W/m² | - |
| 1787938228 | 17.78° C | 99% | 1011 hPa | 0 mm | - | 4 W/m² | - |
| 1787937620 | 18.33° C | 99% | 1010.6 hPa | 0 mm | - | 5 W/m² | - |
| 1787936996 | 18.33° C | 98% | 1010.3 hPa | 0 mm | - | 9 W/m² | - |
| 1787936372 | 18.33° C | 97% | 1010.5 hPa | 0 mm | - | 12 W/m² | - |
| 1787935764 | 18.33° C | 97% | 1010.7 hPa | 0 mm | - | 13 W/m² | - |
| 1787935156 | 18.33° C | 96% | 1010.3 hPa | 0 mm | - | 12 W/m² | - |
| 1787934548 | 18.89° C | 94% | 1011.3 hPa | 0 mm | - | 11 W/m² | - |
| 1787933940 | 18.89° C | 93% | 1011.2 hPa | 0 mm | - | 20 W/m² | - |
| 1787933332 | 18.89° C | 93% | 1010.8 hPa | 0 mm | - | 23 W/m² | - |
| 1787932724 | 19.44° C | 92% | 1011.2 hPa | 0 mm | - | 27 W/m² | - |
| 1787932111 | 19.44° C | 92% | 1011.1 hPa | 0 mm | - | 27 W/m² | - |
| 1787931508 | 19.44° C | 92% | 1011.3 hPa | 0 mm | - | 28 W/m² | - |
| 1787930900 | 19.44° C | 93% | 1011 hPa | 0 mm | - | 36 W/m² | - |
* Rain latest hour (hover to see other rain measurements)
** Current wind speed in m/s (hover to see current wind gust speed)